Location: Potomac
(46.8816°N, 113.5795°W)
Time: 12:00:18
(UTC+00:00)

AO-91 - Pass Details

Date: 08 July 2022
Orbit: 450 x 797 km, 97.7° (Epoch: 12 August)

Event Time Altitude Azimuth Distance (km) Brightness Sun altitude
Rises 06:19:01 0° 15° (NNE) 2,476 ? -18.3°
Reaches altitude 10° 06:21:04 10° 18° (NNE) 1,593 ? -18.4°
Maximum altitude 06:24:26 70° 102° (ESE) 490 ? -18.6°
Enters shadow 06:24:51 60° 152° (SSE) 527 ? -18.6°
